Location: Cactus School
(34.5700°N, 118.0931°W)
Time: 22:12:09
(UTC-07:00)

Vanguard 2 - Pass Details

Date: 30 April 2024
Orbit: 553 x 2914 km, 32.9° (Epoch: 18 May)

Event Time Altitude Azimuth Distance (km) Brightness Sun altitude
Exits shadow 02:28:09 39° 268° (W) 3,075 10.2 -35.2°
Maximum altitude 02:35:09 83° 185° (S) 2,591 9.9 -34.5°
Drops below altitude 10° 02:53:02 10° 101° (E) 5,736 12.2 -32.4°
Sets 02:57:28 0° 101° (E) 6,712 12.6 -31.9°
